Location: *
(49.9853°N, 3.5569°E)
Time: 09:13:05
(UTC+00:00)

Cosmos 1190 Rocket - Pass Details

Date: 22 September 2019
Orbit: 757 x 780 km, 74.1° (Epoch: 18 October)

Event Time Altitude Azimuth Distance (km) Brightness Sun altitude
Rises 18:32:47 0° 336° (NNW) 3,272 7.8 -8.5°
Reaches altitude 10° 18:35:11 10° 339° (NNW) 2,337 7.0 -8.9°
Maximum altitude 18:40:30 75° 64° (ENE) 806 4.0 -9.7°
Drops below altitude 10° 18:45:45 10° 151° (SSE) 2,307 6.1 -10.6°
Enters shadow 18:47:49 - 153° (SSE) 3,113 6.8 -10.9°
